STARLINK-3813, 52482

Orbit data source: Space-Track

STARLINK-3813, 52482 is a payload satellite owned by SpaceX/Seattle (US) in LEO that was launched on Fri, 06 May 2022 UTC via an FALCON 9 launch vehicle from the Air Force Eastern Test Range (AFETR). Payload-class satellites include a variety of spacecraft equipped with specific instruments for various scientific and technological missions. These include communications satellites like Starlink; space stations such as the ISS; scientific satellites like the Hubble; Earth observation satellites from companies like Planet Labs, Umbra, and HawkEye 360; GPS; miniature CubeSats for education and research; and military/defense satellites.

Loading next visibility...
Identifier
52482, 2022-049AH
Orbit
LEO
Country
Flag of USUS
Related business
Manufacturer
SpaceX/Seattle
Mission
Operational Commercial Communications
Bus & Motor
STARLINK, Unknown motor
Mass
297 kg wet, ~220 kg dry
Launch date (UTC)
2022-05-06 (4 years ago)
Launch vehicle
FALCON 9
Launch site
Air Force Eastern Test Range (AFETR)
Object type
Payload
Rocket body
Debris
Shape & HBR
Box + 1 Pan, 10.1 m
Radar Cross Section
13.562 m², Large (>1 m²)

Expand to show TLE details & history
Last TLE update: 2 days ago

TLE from 2 days ago
0 STARLINK-3813
1 52482U 22049AH  26171.37851730 -.00000219  00000-0  43493-5 0  9990
2 52482  53.1601 308.0144 0001140  91.8173 268.2949 15.08835244227892
Epoch: 2026-06-20T09:05Z
TLE epoch observation values (Epoch: 2026-06-20T09:05:03.894Z)
Latitude
-0.00003°
Longitude
-96.84585°
Altitude
540.673 km
Speed
7.593 km/s
True Right ascension
20h 32m 03s
True Declination
0° 00' 00"
Sunlit
Object was in full shadow at epoch
Visualization orbit readout
Latitude
Unknown
Longitude
Unknown
Altitude
Unknown
Speed
Unknown
Apparent Right ascension
Unknown
Apparent Declination
Unknown
Sunlit
N/A
Visualization observer readout
Local Sidereal Time
21:40:24
Azimuth
Unknown
Elevation
Unknown
Doppler factor
Unknown
Orbital elements
Apogee altitude
540.801 km
Perigee altitude
539.223 km
Semi-major axis
6,918.149 km
Eccentricity
0.00011
Inclination
53.1601°
RAAN
308.0144°
Arg. of periapsis
91.8173°
True anomaly
268.28184°
Mean anomaly
268.2949°
Eccentric anomaly
268.28837°
Mean motion
3.77188 °/min
Orbital period
95.44 mins
BSTAR
0.0000043493
Loading maneuver chart data...
Computing Atmospheric mass density...
Loading historical data...
Loading historical data...
Loading historical data...
Loading historical data...
Loading historical data...
Loading historical data...
Loading historical data...

Documentation

Showing up to 5 results
|